Location: ??????
(30.0081°N, 31.2109°E)
Time: 09:11:45
(UTC+00:00)

MetOp-A - Pass Details

Date: 03 March 2021
Orbit: 819 x 821 km, 98.5° (Epoch: 15 April)

Event Time Altitude Azimuth Distance (km) Brightness Sun altitude
Exits shadow 17:45:43 50° 152° (SSE) 1,042 4.4 -24.6°
Maximum altitude 17:47:10 79° 76° (ENE) 840 4.0 -24.9°
Drops below altitude 10° 17:52:32 10° 351° (N) 2,421 6.8 -26.1°
Sets 17:54:53 0° 350° (N) 3,356 7.5 -26.6°
